Year,Month,Day,Hour,Minute,Value (Times are PST for windspeed in km/hr)
2009,11,30,00,00,8.50
2009,11,30,00,01,2.40
2009,11,30,00,02,1.50
2009,11,30,00,03,2.60
2009,11,30,00,04,5.00
2009,11,30,00,05,3.20
2009,11,30,00,06,2.30
2009,11,30,00,07,7.60
2009,11,30,00,08,3.80
2009,11,30,00,09,4.60
2009,11,30,00,10,1.20
2009,11,30,00,11,1.30
2009,11,30,00,12,3.10
2009,11,30,00,13,3.60
2009,11,30,00,14,5.40
2009,11,30,00,15,2.70
2009,11,30,00,16,3.20
2009,11,30,00,17,6.40
2009,11,30,00,18,5.00
2009,11,30,00,19,6.10
2009,11,30,00,20,6.90
2009,11,30,00,21,2.90
2009,11,30,00,22,1.90
2009,11,30,00,23,1.40
2009,11,30,00,24,3.20
2009,11,30,00,25,2.60
2009,11,30,00,26,3.40
2009,11,30,00,27,3.50
2009,11,30,00,28,1.90
2009,11,30,00,29,1.50
2009,11,30,00,30,0.60
2009,11,30,00,31,1.90
2009,11,30,00,32,2.70
2009,11,30,00,33,1.50
2009,11,30,00,34,2.60
2009,11,30,00,35,4.10
2009,11,30,00,36,4.80
2009,11,30,00,37,4.00
2009,11,30,00,38,2.40
2009,11,30,00,39,1.40
2009,11,30,00,40,3.40
2009,11,30,00,41,6.00
2009,11,30,00,42,3.90
2009,11,30,00,43,3.50
2009,11,30,00,44,0.50
2009,11,30,00,45,4.20
2009,11,30,00,46,2.40
2009,11,30,00,47,0.40
2009,11,30,00,48,3.00
2009,11,30,00,49,3.60
2009,11,30,00,50,2.60
2009,11,30,00,51,0.70
2009,11,30,00,52,0.20
2009,11,30,00,53,2.40
2009,11,30,00,54,3.70
2009,11,30,00,55,6.70
2009,11,30,00,56,5.40
2009,11,30,00,57,0.80
2009,11,30,00,58,0.00
2009,11,30,00,59,0.70
2009,11,30,01,00,1.10
2009,11,30,01,01,2.70
2009,11,30,01,02,0.00
2009,11,30,01,03,0.00
2009,11,30,01,04,0.00
2009,11,30,01,05,0.00
2009,11,30,01,06,0.00
2009,11,30,01,07,0.80
2009,11,30,01,08,0.10
2009,11,30,01,09,0.00
2009,11,30,01,10,0.10
2009,11,30,01,11,1.90
2009,11,30,01,12,0.10
2009,11,30,01,13,0.00
2009,11,30,01,14,0.20
2009,11,30,01,15,0.40
2009,11,30,01,16,2.20
2009,11,30,01,17,3.80
2009,11,30,01,18,2.30
2009,11,30,01,19,0.00
2009,11,30,01,20,0.00
2009,11,30,01,21,1.50
2009,11,30,01,22,2.20
2009,11,30,01,23,2.20
2009,11,30,01,24,0.00
2009,11,30,01,25,0.20
2009,11,30,01,26,3.60
2009,11,30,01,27,3.80
2009,11,30,01,28,4.70
2009,11,30,01,29,2.90
2009,11,30,01,30,5.10
2009,11,30,01,31,1.40
2009,11,30,01,32,1.40
2009,11,30,01,33,1.70
2009,11,30,01,34,4.60
2009,11,30,01,35,5.90
2009,11,30,01,36,5.00
2009,11,30,01,37,2.50
2009,11,30,01,38,3.30
2009,11,30,01,39,4.30
2009,11,30,01,40,1.30
2009,11,30,01,41,3.60
2009,11,30,01,42,3.10
2009,11,30,01,43,4.30
2009,11,30,01,44,3.90
2009,11,30,01,45,2.80
2009,11,30,01,46,0.70
2009,11,30,01,47,0.00
2009,11,30,01,48,0.00
2009,11,30,01,49,0.50
2009,11,30,01,50,2.20
2009,11,30,01,51,0.00
2009,11,30,01,52,2.20
2009,11,30,01,53,2.20
2009,11,30,01,54,3.60
2009,11,30,01,55,0.00
2009,11,30,01,56,5.20
2009,11,30,01,57,4.80
2009,11,30,01,58,0.50
2009,11,30,01,59,1.40
2009,11,30,02,00,3.60
2009,11,30,02,01,3.60
2009,11,30,02,02,3.60
2009,11,30,02,03,5.20
2009,11,30,02,04,4.10
2009,11,30,02,05,5.70
2009,11,30,02,06,7.00
2009,11,30,02,07,1.80
2009,11,30,02,08,1.50
2009,11,30,02,09,0.90
2009,11,30,02,10,2.20
2009,11,30,02,11,2.40
2009,11,30,02,12,2.70
2009,11,30,02,13,3.50
2009,11,30,02,14,5.00
2009,11,30,02,15,2.00
2009,11,30,02,16,2.90
2009,11,30,02,17,2.30
2009,11,30,02,18,3.50
2009,11,30,02,19,3.80
2009,11,30,02,20,4.70
2009,11,30,02,21,1.00
2009,11,30,02,22,0.20
2009,11,30,02,23,0.20
2009,11,30,02,24,2.70
2009,11,30,02,25,2.20
2009,11,30,02,26,5.00
2009,11,30,02,27,5.60
2009,11,30,02,28,11.70
2009,11,30,02,29,8.60
2009,11,30,02,30,2.20
2009,11,30,02,31,2.80
2009,11,30,02,32,6.50
2009,11,30,02,33,6.60
2009,11,30,02,34,1.00
2009,11,30,02,35,4.20
2009,11,30,02,36,8.70
2009,11,30,02,37,5.50
2009,11,30,02,38,6.30
2009,11,30,02,39,2.60
2009,11,30,02,40,0.60
2009,11,30,02,41,1.50
2009,11,30,02,42,3.10
2009,11,30,02,43,2.70
2009,11,30,02,44,4.00
2009,11,30,02,45,0.00
2009,11,30,02,46,1.20
2009,11,30,02,47,5.60
2009,11,30,02,48,4.70
2009,11,30,02,49,2.70
2009,11,30,02,50,2.30
2009,11,30,02,51,6.20
2009,11,30,02,52,4.20
2009,11,30,02,53,7.30
2009,11,30,02,54,7.20
2009,11,30,02,55,9.20
2009,11,30,02,56,6.50
2009,11,30,02,57,1.50
2009,11,30,02,58,3.80
2009,11,30,02,59,4.70
2009,11,30,03,00,2.50
2009,11,30,03,01,1.90
2009,11,30,03,02,1.20
2009,11,30,03,03,4.40
2009,11,30,03,04,2.40
2009,11,30,03,05,0.50
2009,11,30,03,06,0.00
2009,11,30,03,07,0.00
2009,11,30,03,08,0.00
2009,11,30,03,09,0.00
2009,11,30,03,10,0.00
2009,11,30,03,11,2.70
2009,11,30,03,12,6.40
2009,11,30,03,13,7.20
2009,11,30,03,14,3.10
2009,11,30,03,15,1.90
2009,11,30,03,16,6.10
2009,11,30,03,17,3.60
2009,11,30,03,18,3.50
2009,11,30,03,19,3.00
2009,11,30,03,20,4.10
2009,11,30,03,21,5.50
2009,11,30,03,22,4.30
2009,11,30,03,23,4.10
2009,11,30,03,24,10.50
2009,11,30,03,25,17.60
2009,11,30,03,26,21.90
2009,11,30,03,27,17.20
2009,11,30,03,28,10.10
2009,11,30,03,29,7.70
2009,11,30,03,30,7.50
2009,11,30,03,31,8.00
2009,11,30,03,32,4.90
2009,11,30,03,33,2.20
2009,11,30,03,34,0.20
2009,11,30,03,35,2.30
2009,11,30,03,36,1.00
2009,11,30,03,37,2.50
2009,11,30,03,38,2.50
2009,11,30,03,39,0.70
2009,11,30,03,40,0.20
2009,11,30,03,41,3.80
2009,11,30,03,42,2.60
2009,11,30,03,43,1.50
2009,11,30,03,44,4.20
2009,11,30,03,45,5.90
2009,11,30,03,46,2.60
2009,11,30,03,47,3.90
2009,11,30,03,48,0.40
2009,11,30,03,49,0.20
2009,11,30,03,50,3.70
2009,11,30,03,51,4.50
2009,11,30,03,52,4.00
2009,11,30,03,53,2.60
2009,11,30,03,54,2.80
2009,11,30,03,55,3.40
2009,11,30,03,56,2.80
2009,11,30,03,57,2.90
2009,11,30,03,58,2.80
2009,11,30,03,59,3.50
2009,11,30,04,00,1.70
2009,11,30,04,01,1.10
2009,11,30,04,02,0.30
2009,11,30,04,03,3.90
2009,11,30,04,04,6.10
2009,11,30,04,05,2.60
2009,11,30,04,06,3.90
2009,11,30,04,07,8.40
2009,11,30,04,08,9.00
2009,11,30,04,09,5.60
2009,11,30,04,10,2.30
2009,11,30,04,11,0.00
2009,11,30,04,12,1.00
2009,11,30,04,13,1.40
2009,11,30,04,14,2.70
2009,11,30,04,15,6.00
2009,11,30,04,16,3.30
2009,11,30,04,17,1.90
2009,11,30,04,18,11.30
2009,11,30,04,19,12.30
2009,11,30,04,20,8.60
2009,11,30,04,21,4.50
2009,11,30,04,22,1.80
2009,11,30,04,23,5.30
2009,11,30,04,24,6.80
2009,11,30,04,25,10.80
2009,11,30,04,26,5.80
2009,11,30,04,27,6.10
2009,11,30,04,28,8.60
2009,11,30,04,29,6.30
2009,11,30,04,30,6.00
2009,11,30,04,31,4.60
2009,11,30,04,32,1.10
2009,11,30,04,33,1.60
2009,11,30,04,34,5.90
2009,11,30,04,35,8.40
2009,11,30,04,36,4.90
2009,11,30,04,37,4.60
2009,11,30,04,38,7.40
2009,11,30,04,39,6.40
2009,11,30,04,40,3.60
2009,11,30,04,41,6.10
2009,11,30,04,42,3.20
2009,11,30,04,43,3.00
2009,11,30,04,44,2.60
2009,11,30,04,45,5.20
2009,11,30,04,46,6.30
2009,11,30,04,47,3.90
2009,11,30,04,48,1.90
2009,11,30,04,49,4.40
2009,11,30,04,50,5.10
2009,11,30,04,51,3.60
2009,11,30,04,52,5.10
2009,11,30,04,53,4.40
2009,11,30,04,54,4.40
2009,11,30,04,55,1.30
2009,11,30,04,56,2.40
2009,11,30,04,57,3.50
2009,11,30,04,58,4.20
2009,11,30,04,59,7.10
2009,11,30,05,00,10.60
2009,11,30,05,01,7.60
2009,11,30,05,02,4.80
2009,11,30,05,03,5.40
2009,11,30,05,04,4.20
2009,11,30,05,05,3.50
2009,11,30,05,06,3.80
2009,11,30,05,07,3.20
2009,11,30,05,08,0.00
2009,11,30,05,09,0.20
2009,11,30,05,10,1.00
2009,11,30,05,11,2.10
2009,11,30,05,12,1.70
2009,11,30,05,13,3.10
2009,11,30,05,14,2.60
2009,11,30,05,15,1.80
2009,11,30,05,16,1.80
2009,11,30,05,17,4.30
2009,11,30,05,18,4.30
2009,11,30,05,19,3.50
2009,11,30,05,20,2.70
2009,11,30,05,21,0.00
2009,11,30,05,22,3.20
2009,11,30,05,23,4.80
2009,11,30,05,24,3.60
2009,11,30,05,25,0.30
2009,11,30,05,26,1.10
2009,11,30,05,27,1.00
2009,11,30,05,28,1.90
2009,11,30,05,29,2.70
2009,11,30,05,30,7.50
2009,11,30,05,31,8.10
2009,11,30,05,32,3.20
2009,11,30,05,33,1.40
2009,11,30,05,34,4.00
2009,11,30,05,35,5.80
2009,11,30,05,36,5.10
2009,11,30,05,37,1.90
2009,11,30,05,38,0.70
2009,11,30,05,39,1.90
2009,11,30,05,40,5.60
2009,11,30,05,41,7.10
2009,11,30,05,42,9.80
2009,11,30,05,43,4.00
2009,11,30,05,44,4.80
2009,11,30,05,45,1.10
2009,11,30,05,46,0.50
2009,11,30,05,47,2.40
2009,11,30,05,48,1.60
2009,11,30,05,49,1.20
2009,11,30,05,50,2.90
2009,11,30,05,51,1.60
2009,11,30,05,52,1.70
2009,11,30,05,53,0.60
2009,11,30,05,54,2.90
2009,11,30,05,55,4.50
2009,11,30,05,56,3.60
2009,11,30,05,57,0.60
2009,11,30,05,58,0.20
2009,11,30,05,59,0.00
2009,11,30,06,00,0.40
2009,11,30,06,01,3.70
2009,11,30,06,02,5.40
2009,11,30,06,03,7.50
2009,11,30,06,04,5.60
2009,11,30,06,05,9.00
2009,11,30,06,06,7.20
2009,11,30,06,07,4.10
2009,11,30,06,08,3.10
2009,11,30,06,09,3.10
2009,11,30,06,10,4.50
2009,11,30,06,11,5.40
2009,11,30,06,12,3.50
2009,11,30,06,13,5.30
2009,11,30,06,14,6.30
2009,11,30,06,15,1.60
2009,11,30,06,16,4.60
2009,11,30,06,17,5.20
2009,11,30,06,18,2.00
2009,11,30,06,19,2.30
2009,11,30,06,20,3.60
2009,11,30,06,21,3.10
2009,11,30,06,22,4.60
2009,11,30,06,23,3.10
2009,11,30,06,24,2.90
2009,11,30,06,25,6.50
2009,11,30,06,26,2.50
2009,11,30,06,27,5.00
2009,11,30,06,28,5.10
2009,11,30,06,29,3.70
2009,11,30,06,30,3.60
2009,11,30,06,31,5.20
2009,11,30,06,32,2.10
2009,11,30,06,33,3.90
2009,11,30,06,34,4.40
2009,11,30,06,35,14.10
2009,11,30,06,36,10.00
2009,11,30,06,37,12.80
2009,11,30,06,38,7.30
2009,11,30,06,39,14.10
2009,11,30,06,40,8.40
2009,11,30,06,41,13.40
2009,11,30,06,42,20.80
2009,11,30,06,43,14.40
2009,11,30,06,44,16.60
2009,11,30,06,45,7.90
2009,11,30,06,46,7.00
2009,11,30,06,47,7.60
2009,11,30,06,48,12.80
2009,11,30,06,49,11.90
2009,11,30,06,50,10.80
2009,11,30,06,51,7.90
2009,11,30,06,52,7.70
2009,11,30,06,53,9.20
2009,11,30,06,54,10.50
2009,11,30,06,55,13.30
2009,11,30,06,56,15.90
2009,11,30,06,57,12.20
2009,11,30,06,58,12.00
2009,11,30,06,59,12.40
2009,11,30,07,00,16.20
2009,11,30,07,01,18.60
2009,11,30,07,02,34.30
2009,11,30,07,03,29.40
2009,11,30,07,04,19.60
2009,11,30,07,05,26.30
2009,11,30,07,06,26.60
2009,11,30,07,07,20.80
2009,11,30,07,08,25.80
2009,11,30,07,09,24.50
2009,11,30,07,10,17.90
2009,11,30,07,11,21.10
2009,11,30,07,12,17.40
2009,11,30,07,13,20.40
2009,11,30,07,14,20.70
2009,11,30,07,15,19.10
2009,11,30,07,16,17.70
2009,11,30,07,17,16.20
2009,11,30,07,18,21.20
2009,11,30,07,19,17.00
2009,11,30,07,20,16.40
2009,11,30,07,21,21.30
2009,11,30,07,22,16.70
2009,11,30,07,23,17.10
2009,11,30,07,24,16.30
2009,11,30,07,25,16.40
2009,11,30,07,26,15.00
2009,11,30,07,27,18.80
2009,11,30,07,28,15.30
2009,11,30,07,29,15.90
2009,11,30,07,30,23.10
2009,11,30,07,31,20.10
2009,11,30,07,32,22.50
2009,11,30,07,33,21.70
2009,11,30,07,34,20.80
2009,11,30,07,35,11.10
2009,11,30,07,36,17.30
2009,11,30,07,37,16.80
2009,11,30,07,38,16.20
2009,11,30,07,39,12.80
2009,11,30,07,40,16.80
2009,11,30,07,41,13.10
2009,11,30,07,42,16.80
2009,11,30,07,43,18.60
2009,11,30,07,44,18.30
2009,11,30,07,45,14.10
2009,11,30,07,46,14.00
2009,11,30,07,47,13.50
2009,11,30,07,48,22.80
2009,11,30,07,49,15.20
2009,11,30,07,50,10.70
2009,11,30,07,51,12.10
2009,11,30,07,52,7.00
2009,11,30,07,53,15.90
2009,11,30,07,54,20.00
2009,11,30,07,55,17.90
2009,11,30,07,56,12.80
2009,11,30,07,57,10.00
2009,11,30,07,58,10.10
2009,11,30,07,59,22.50
2009,11,30,08,00,14.60
2009,11,30,08,01,19.20
2009,11,30,08,02,16.50
2009,11,30,08,03,8.00
2009,11,30,08,04,16.70
2009,11,30,08,05,19.70
2009,11,30,08,06,11.10
2009,11,30,08,07,14.90
2009,11,30,08,08,11.00
2009,11,30,08,09,8.50
2009,11,30,08,10,15.80
2009,11,30,08,11,12.60
2009,11,30,08,12,10.00
2009,11,30,08,13,10.60
2009,11,30,08,14,10.20
2009,11,30,08,15,9.70
2009,11,30,08,16,6.40
2009,11,30,08,17,9.20
2009,11,30,08,18,10.50
2009,11,30,08,19,15.20
2009,11,30,08,20,9.30
2009,11,30,08,21,11.40
2009,11,30,08,22,7.30
2009,11,30,08,23,6.40
2009,11,30,08,24,9.70
2009,11,30,08,25,8.00
2009,11,30,08,26,6.40
2009,11,30,08,27,11.50
2009,11,30,08,28,9.20
2009,11,30,08,29,9.80
2009,11,30,08,30,10.10
2009,11,30,08,31,8.30
2009,11,30,08,32,6.40
2009,11,30,08,33,4.60
2009,11,30,08,34,5.80
2009,11,30,08,35,5.80
2009,11,30,08,36,6.60
2009,11,30,08,37,7.30
2009,11,30,08,38,5.00
2009,11,30,08,39,3.10
2009,11,30,08,40,2.30
2009,11,30,08,41,6.40
2009,11,30,08,42,4.70
2009,11,30,08,43,5.80
2009,11,30,08,44,3.90
2009,11,30,08,45,4.40
2009,11,30,08,46,2.90
2009,11,30,08,47,2.50
2009,11,30,08,48,3.00
2009,11,30,08,49,4.10
2009,11,30,08,50,3.60
2009,11,30,08,51,3.50
2009,11,30,08,52,3.10
2009,11,30,08,53,2.00
2009,11,30,08,54,0.20
2009,11,30,08,55,1.80
2009,11,30,08,56,4.30
2009,11,30,08,57,2.90
2009,11,30,08,58,3.70
2009,11,30,08,59,2.40
2009,11,30,09,00,2.60
2009,11,30,09,01,1.90
2009,11,30,09,02,2.20
2009,11,30,09,03,1.40
2009,11,30,09,04,0.90
2009,11,30,09,05,1.90
2009,11,30,09,06,1.90
2009,11,30,09,07,3.50
2009,11,30,09,08,0.70
2009,11,30,09,09,3.20
2009,11,30,09,10,5.40
2009,11,30,09,11,2.50
2009,11,30,09,12,0.50
2009,11,30,09,13,2.70
2009,11,30,09,14,3.50
2009,11,30,09,15,2.70
2009,11,30,09,16,4.10
2009,11,30,09,17,1.50
2009,11,30,09,18,1.30
2009,11,30,09,19,0.80
2009,11,30,09,20,1.50
2009,11,30,09,21,3.90
2009,11,30,09,22,1.40
2009,11,30,09,23,3.70
2009,11,30,09,24,2.90
2009,11,30,09,25,1.10
2009,11,30,09,26,2.40
2009,11,30,09,27,3.40
2009,11,30,09,28,2.20
2009,11,30,09,29,2.40
2009,11,30,09,30,0.50
2009,11,30,09,31,2.40
2009,11,30,09,32,1.40
2009,11,30,09,33,1.20
2009,11,30,09,34,0.00
2009,11,30,09,35,0.00
2009,11,30,09,36,0.00
2009,11,30,09,37,1.60
2009,11,30,09,38,0.30
2009,11,30,09,39,0.90
2009,11,30,09,40,0.30
2009,11,30,09,41,0.10
2009,11,30,09,42,0.00
2009,11,30,09,43,0.00
2009,11,30,09,44,0.00
2009,11,30,09,45,0.60
2009,11,30,09,46,0.00
2009,11,30,09,47,0.00
2009,11,30,09,48,0.00
2009,11,30,09,49,0.10
2009,11,30,09,50,0.00
2009,11,30,09,51,0.00
2009,11,30,09,52,0.10
2009,11,30,09,53,1.40
2009,11,30,09,54,0.50
2009,11,30,09,55,0.80
2009,11,30,09,56,1.00
2009,11,30,09,57,0.00
2009,11,30,09,58,0.60
2009,11,30,09,59,2.80
2009,11,30,10,00,3.90
2009,11,30,10,01,2.10
2009,11,30,10,02,1.90
2009,11,30,10,03,1.10
2009,11,30,10,04,2.70
2009,11,30,10,05,1.40
2009,11,30,10,06,2.30
2009,11,30,10,07,3.70
2009,11,30,10,08,3.70
2009,11,30,10,09,2.70
2009,11,30,10,10,4.10
2009,11,30,10,11,5.10
2009,11,30,10,12,5.70
2009,11,30,10,13,2.80
2009,11,30,10,14,1.90
2009,11,30,10,15,0.90
2009,11,30,10,16,1.20
2009,11,30,10,17,0.30
2009,11,30,10,18,0.40
2009,11,30,10,19,0.00
2009,11,30,10,20,0.70
2009,11,30,10,21,0.10
2009,11,30,10,22,0.50
2009,11,30,10,23,0.80
2009,11,30,10,24,0.00
2009,11,30,10,25,0.00
2009,11,30,10,26,0.00
2009,11,30,10,27,0.00
2009,11,30,10,28,0.10
2009,11,30,10,29,0.00
2009,11,30,10,30,0.00
2009,11,30,10,31,0.20
2009,11,30,10,32,1.80
2009,11,30,10,33,0.10
2009,11,30,10,34,0.10
2009,11,30,10,35,0.00
2009,11,30,10,36,0.00
2009,11,30,10,37,0.00
2009,11,30,10,38,0.00
2009,11,30,10,39,2.30
2009,11,30,10,40,3.00
2009,11,30,10,41,1.10
2009,11,30,10,42,3.50
2009,11,30,10,43,5.00
2009,11,30,10,44,3.90
2009,11,30,10,45,0.60
2009,11,30,10,46,1.90
2009,11,30,10,47,2.10
2009,11,30,10,48,0.90
2009,11,30,10,49,1.40
2009,11,30,10,50,1.90
2009,11,30,10,51,2.30
2009,11,30,10,52,2.30
2009,11,30,10,53,3.60
2009,11,30,10,54,1.00
2009,11,30,10,55,0.30
2009,11,30,10,56,2.50
2009,11,30,10,57,3.40
2009,11,30,10,58,5.60
2009,11,30,10,59,2.70
2009,11,30,11,00,1.50
2009,11,30,11,01,0.60
2009,11,30,11,02,1.90
2009,11,30,11,03,3.00
2009,11,30,11,04,2.60
2009,11,30,11,05,3.60
2009,11,30,11,06,3.50
2009,11,30,11,07,3.00
2009,11,30,11,08,3.80
2009,11,30,11,09,3.90
2009,11,30,11,10,4.50
2009,11,30,11,11,4.30
2009,11,30,11,12,4.30
2009,11,30,11,13,3.70
2009,11,30,11,14,3.50
2009,11,30,11,15,4.40
2009,11,30,11,16,5.00
2009,11,30,11,17,3.20
2009,11,30,11,18,1.10
2009,11,30,11,19,0.20
2009,11,30,11,20,2.70
2009,11,30,11,21,3.80
2009,11,30,11,22,3.10
2009,11,30,11,23,1.70
2009,11,30,11,24,0.20
2009,11,30,11,25,1.50
2009,11,30,11,26,3.60
2009,11,30,11,27,3.40
2009,11,30,11,28,3.60
2009,11,30,11,29,5.50
2009,11,30,11,30,2.10
2009,11,30,11,31,3.20
2009,11,30,11,32,1.20
2009,11,30,11,33,0.80
2009,11,30,11,34,1.50
2009,11,30,11,35,1.70
2009,11,30,11,36,3.10
2009,11,30,11,37,1.90
2009,11,30,11,38,6.10
2009,11,30,11,39,2.20
2009,11,30,11,40,2.30
2009,11,30,11,41,1.60
2009,11,30,11,42,3.80
2009,11,30,11,43,2.40
2009,11,30,11,44,1.00
2009,11,30,11,45,1.70
2009,11,30,11,46,1.20
2009,11,30,11,47,5.40
2009,11,30,11,48,2.20
2009,11,30,11,49,3.40
2009,11,30,11,50,5.10
2009,11,30,11,51,5.30
2009,11,30,11,52,1.70
2009,11,30,11,53,5.00
2009,11,30,11,54,5.00
2009,11,30,11,55,2.90
2009,11,30,11,56,0.20
2009,11,30,11,57,1.00
2009,11,30,11,58,1.20
2009,11,30,11,59,1.20
2009,11,30,12,00,1.20
2009,11,30,12,01,2.30
2009,11,30,12,02,3.60
2009,11,30,12,03,1.10
2009,11,30,12,04,3.10
2009,11,30,12,05,2.50
2009,11,30,12,06,4.80
2009,11,30,12,07,4.70
2009,11,30,12,08,4.80
2009,11,30,12,09,2.50
2009,11,30,12,10,3.90
2009,11,30,12,11,5.50
2009,11,30,12,12,5.60
2009,11,30,12,13,5.80
2009,11,30,12,14,4.30
2009,11,30,12,15,3.50
2009,11,30,12,16,3.90
2009,11,30,12,17,5.10
2009,11,30,12,18,3.80
2009,11,30,12,19,2.20
2009,11,30,12,20,5.60
2009,11,30,12,21,2.90
2009,11,30,12,22,3.00
2009,11,30,12,23,2.70
2009,11,30,12,24,5.60
2009,11,30,12,25,3.40
2009,11,30,12,26,3.50
2009,11,30,12,27,0.70
2009,11,30,12,28,1.40
2009,11,30,12,29,6.60
2009,11,30,12,30,7.20
2009,11,30,12,31,5.40
2009,11,30,12,32,3.30
2009,11,30,12,33,2.80
2009,11,30,12,34,2.80
2009,11,30,12,35,5.70
2009,11,30,12,36,5.30
2009,11,30,12,37,3.90
2009,11,30,12,38,3.20
2009,11,30,12,39,2.40
2009,11,30,12,40,3.10
2009,11,30,12,41,1.70
2009,11,30,12,42,3.30
2009,11,30,12,43,3.40
2009,11,30,12,44,2.10
2009,11,30,12,45,0.40
2009,11,30,12,46,3.50
2009,11,30,12,47,3.50
2009,11,30,12,48,0.10
2009,11,30,12,49,0.00
2009,11,30,12,50,0.00
2009,11,30,12,51,0.60
2009,11,30,12,52,0.80
2009,11,30,12,53,2.20
2009,11,30,12,54,1.50
2009,11,30,12,55,0.10
2009,11,30,12,56,0.40
2009,11,30,12,57,1.30
2009,11,30,12,58,1.00
2009,11,30,12,59,0.40
2009,11,30,13,00,2.40
2009,11,30,13,01,3.30
2009,11,30,13,02,3.90
2009,11,30,13,03,1.60
2009,11,30,13,04,0.10
2009,11,30,13,05,1.30
2009,11,30,13,06,0.20
2009,11,30,13,07,0.10
2009,11,30,13,08,0.60
2009,11,30,13,09,0.10
2009,11,30,13,10,0.00
2009,11,30,13,11,0.10
2009,11,30,13,12,0.40
2009,11,30,13,13,0.10
2009,11,30,13,14,0.20
2009,11,30,13,15,0.80
2009,11,30,13,16,0.00
2009,11,30,13,17,1.00
2009,11,30,13,18,0.00
2009,11,30,13,19,0.00
2009,11,30,13,20,0.60
2009,11,30,13,21,0.60
2009,11,30,13,22,0.40
2009,11,30,13,23,0.00
2009,11,30,13,24,0.20
2009,11,30,13,25,0.40
2009,11,30,13,26,1.30
2009,11,30,13,27,2.20
2009,11,30,13,28,1.40
2009,11,30,13,29,2.50
2009,11,30,13,30,2.40
2009,11,30,13,31,3.40
2009,11,30,13,32,1.10
2009,11,30,13,33,0.90
2009,11,30,13,34,0.60
2009,11,30,13,35,1.60
2009,11,30,13,36,1.50
2009,11,30,13,37,0.30
2009,11,30,13,38,0.10
2009,11,30,13,39,0.60
2009,11,30,13,40,0.00
2009,11,30,13,41,0.20
2009,11,30,13,42,0.00
2009,11,30,13,43,0.30
2009,11,30,13,44,0.50
2009,11,30,13,45,0.00
2009,11,30,13,46,0.00
2009,11,30,13,47,0.80
2009,11,30,13,48,0.20
2009,11,30,13,49,0.50
2009,11,30,13,50,0.60
2009,11,30,13,51,2.70
2009,11,30,13,52,4.40
2009,11,30,13,53,2.70
2009,11,30,13,54,2.60
2009,11,30,13,55,3.40
2009,11,30,13,56,1.80
2009,11,30,13,57,2.40
2009,11,30,13,58,3.70
2009,11,30,13,59,3.40
2009,11,30,14,00,3.50
2009,11,30,14,01,4.10
2009,11,30,14,02,1.90
2009,11,30,14,03,0.20
2009,11,30,14,04,0.20
2009,11,30,14,05,1.30
2009,11,30,14,06,0.20
2009,11,30,14,07,3.90
2009,11,30,14,08,4.10
2009,11,30,14,09,1.70
2009,11,30,14,10,3.00
2009,11,30,14,11,3.80
2009,11,30,14,12,6.20
2009,11,30,14,13,7.80
2009,11,30,14,14,6.70
2009,11,30,14,15,7.20
2009,11,30,14,16,3.70
2009,11,30,14,17,7.00
2009,11,30,14,18,7.10
2009,11,30,14,19,6.70
2009,11,30,14,20,5.30
2009,11,30,14,21,4.60
2009,11,30,14,22,1.70
2009,11,30,14,23,3.10
2009,11,30,14,24,4.60
2009,11,30,14,25,4.00
2009,11,30,14,26,4.10
2009,11,30,14,27,2.20
2009,11,30,14,28,1.60
2009,11,30,14,29,1.20
2009,11,30,14,30,1.00
2009,11,30,14,31,2.00
2009,11,30,14,32,0.10
2009,11,30,14,33,0.00
2009,11,30,14,34,0.00
2009,11,30,14,35,0.00
2009,11,30,14,36,0.00
2009,11,30,14,37,0.00
2009,11,30,14,38,0.00
2009,11,30,14,39,0.00
2009,11,30,14,40,0.60
2009,11,30,14,41,0.00
2009,11,30,14,42,0.00
2009,11,30,14,43,0.00
2009,11,30,14,44,0.00
2009,11,30,14,45,0.00
2009,11,30,14,46,0.00
2009,11,30,14,47,0.00
2009,11,30,14,48,0.00
2009,11,30,14,49,0.00
2009,11,30,14,50,0.00
2009,11,30,14,51,0.00
2009,11,30,14,52,0.00
2009,11,30,14,53,0.00
2009,11,30,14,54,0.00
2009,11,30,14,55,0.00
2009,11,30,14,56,0.10
2009,11,30,14,57,0.00
2009,11,30,14,58,0.00
2009,11,30,14,59,0.00
2009,11,30,15,00,0.00
2009,11,30,15,01,0.00
2009,11,30,15,02,0.00
2009,11,30,15,03,0.00
2009,11,30,15,04,0.00
2009,11,30,15,05,0.00
2009,11,30,15,06,0.00
2009,11,30,15,07,0.00
2009,11,30,15,08,0.00
2009,11,30,15,09,0.00
2009,11,30,15,10,0.00
2009,11,30,15,11,0.00
2009,11,30,15,12,0.00
2009,11,30,15,13,0.00
2009,11,30,15,14,0.00
2009,11,30,15,15,0.00
2009,11,30,15,16,0.00
2009,11,30,15,17,0.00
2009,11,30,15,18,0.00
2009,11,30,15,19,0.00
2009,11,30,15,20,0.00
2009,11,30,15,21,0.00
2009,11,30,15,22,0.00
2009,11,30,15,23,0.00
2009,11,30,15,24,0.00
2009,11,30,15,25,0.00
2009,11,30,15,26,0.00
2009,11,30,15,27,0.00
2009,11,30,15,28,0.00
2009,11,30,15,29,0.00
2009,11,30,15,30,0.00
2009,11,30,15,31,0.00
2009,11,30,15,32,0.00
2009,11,30,15,33,0.00
2009,11,30,15,34,0.00
2009,11,30,15,35,0.00
2009,11,30,15,36,0.00
2009,11,30,15,37,0.00
2009,11,30,15,38,0.00
2009,11,30,15,39,0.00
2009,11,30,15,40,0.00
2009,11,30,15,41,0.00
2009,11,30,15,42,0.00
2009,11,30,15,43,0.00
2009,11,30,15,44,0.00
2009,11,30,15,45,0.00
2009,11,30,15,46,0.00
2009,11,30,15,47,0.00
2009,11,30,15,48,0.00
2009,11,30,15,49,0.00
2009,11,30,15,50,0.00
2009,11,30,15,51,0.00
2009,11,30,15,52,0.00
2009,11,30,15,53,0.00
2009,11,30,15,54,0.00
2009,11,30,15,55,0.00
2009,11,30,15,56,0.00
2009,11,30,15,57,0.10
2009,11,30,15,58,0.00
2009,11,30,15,59,0.00
2009,11,30,16,00,0.00
2009,11,30,16,01,0.00
2009,11,30,16,02,0.00
2009,11,30,16,03,0.00
2009,11,30,16,04,0.00
2009,11,30,16,05,0.00
2009,11,30,16,06,0.00
2009,11,30,16,07,0.00
2009,11,30,16,08,0.00
2009,11,30,16,09,0.00
2009,11,30,16,10,0.00
2009,11,30,16,11,0.00
2009,11,30,16,12,0.00
2009,11,30,16,13,0.00
2009,11,30,16,14,0.00
2009,11,30,16,15,0.00
2009,11,30,16,16,0.00
2009,11,30,16,17,0.00
2009,11,30,16,18,0.00
2009,11,30,16,19,0.00
2009,11,30,16,20,0.00
2009,11,30,16,21,0.00
2009,11,30,16,22,0.00
2009,11,30,16,23,0.00
2009,11,30,16,24,0.10
2009,11,30,16,25,0.80
2009,11,30,16,26,1.10
2009,11,30,16,27,0.00
2009,11,30,16,28,0.00
2009,11,30,16,29,0.00
2009,11,30,16,30,1.40
2009,11,30,16,31,1.50
2009,11,30,16,32,0.40
2009,11,30,16,33,1.10
2009,11,30,16,34,0.10
2009,11,30,16,35,1.20
2009,11,30,16,36,0.90
2009,11,30,16,37,0.20
2009,11,30,16,38,0.00
2009,11,30,16,39,0.00
2009,11,30,16,40,0.60
2009,11,30,16,41,0.10
2009,11,30,16,42,0.00
2009,11,30,16,43,0.00
2009,11,30,16,44,0.00
2009,11,30,16,45,0.00
2009,11,30,16,46,0.00
2009,11,30,16,47,0.00
2009,11,30,16,48,0.00
2009,11,30,16,49,0.40
2009,11,30,16,50,0.60
2009,11,30,16,51,0.30
2009,11,30,16,52,0.80
2009,11,30,16,53,0.90
2009,11,30,16,54,2.50
2009,11,30,16,55,2.10
2009,11,30,16,56,2.90
2009,11,30,16,57,2.20
2009,11,30,16,58,4.50
2009,11,30,16,59,2.90
2009,11,30,17,00,2.50
2009,11,30,17,01,2.70
2009,11,30,17,02,3.10
2009,11,30,17,03,1.70
2009,11,30,17,04,3.80
2009,11,30,17,05,2.90
2009,11,30,17,06,2.80
2009,11,30,17,07,4.10
2009,11,30,17,08,2.70
2009,11,30,17,09,0.10
2009,11,30,17,10,1.80
2009,11,30,17,11,4.40
2009,11,30,17,12,2.50
2009,11,30,17,13,1.40
2009,11,30,17,14,1.10
2009,11,30,17,15,1.70
2009,11,30,17,16,1.90
2009,11,30,17,17,1.90
2009,11,30,17,18,1.20
2009,11,30,17,19,4.00
2009,11,30,17,20,6.40
2009,11,30,17,21,5.10
2009,11,30,17,22,1.90
2009,11,30,17,23,4.70
2009,11,30,17,24,3.10
2009,11,30,17,25,1.50
2009,11,30,17,26,0.60
2009,11,30,17,27,0.90
2009,11,30,17,28,1.20
2009,11,30,17,29,1.90
2009,11,30,17,30,1.90
2009,11,30,17,31,1.90
2009,11,30,17,32,2.60
2009,11,30,17,33,1.40
2009,11,30,17,34,0.70
2009,11,30,17,35,1.10
2009,11,30,17,36,0.80
2009,11,30,17,37,0.20
2009,11,30,17,38,1.00
2009,11,30,17,39,1.70
2009,11,30,17,40,0.80
2009,11,30,17,41,1.50
2009,11,30,17,42,2.10
2009,11,30,17,43,3.20
2009,11,30,17,44,3.40
2009,11,30,17,45,3.50
2009,11,30,17,46,4.10
2009,11,30,17,47,4.20
2009,11,30,17,48,3.50
2009,11,30,17,49,4.40
2009,11,30,17,50,3.20
2009,11,30,17,51,3.60
2009,11,30,17,52,0.60
2009,11,30,17,53,1.10
2009,11,30,17,54,1.40
2009,11,30,17,55,1.30
2009,11,30,17,56,1.50
2009,11,30,17,57,1.70
2009,11,30,17,58,0.60
2009,11,30,17,59,2.60
2009,11,30,18,00,1.40
2009,11,30,18,01,0.50